Voltar ao catálogo

STARLINK-4071

AtivoComunicaçõesVLEO
NORAD 52671·PAYLOAD·🇺🇸 United States

Lançado May 18, 2022 de Cape Canaveral Space Force Station

Loading…

Próximas Passagens (próximas 24 horas)

TLE

AtualizadoSource: CelesTrak SupGP

Época: Sep 14, 2026, 21:20 UTC

1 52671C 22053R   26257.88937500  .00008725  00000+0  54724-3 0  2578
2 52671  53.1599  24.1416 0001225  81.5197 268.2896 15.08824505    14

Acompanhe STARLINK-4071 em tempo real com AllMySat

Download on the App Store